2019-087B (44839 NORAD) Tracking and Keplerian Element Data

This shows tracking and keplerian element data for the satellite.

Feedback or suggestion? Click here.




ElementValue
Catalog44839
Name2019-087B
Epoch Orbit1790
Epoch Day94.12748293
Epoch Year2020
RAAN251.2926
Inclination97.3869
Eccentricity0.0012136
Argument of Perigee206.9186
Mean Anonmoly266.3067
Mean Motion15.21113401
Decay Rate9.83E-06
L11 44839U 19087B 20094.12748293 .00000983 00000-0 47234-4 0 9998
L22 44839 97.3869 251.2926 0012136 206.9186 266.3067 15.21113401 17900

Live tracking and technical data element details for 2019-087B (NORAD 44839). 2019-087B can be tracked NOW for your location showing map with azimuth and elevation plus other details from your city location.

Track the satellite on the map from your city or location and see movement details for azimuth, elevation, latitude, longitude, range, height, and movement on the map or in text.







IsCatalogInMostPopularTable: catalog: 44839, numindb: 47
Update: records affected: 1



GetName: 44839 2019-087B

Hit Count: updated at: Mon, 06 Apr 2020 14:45:23 GMT